Regional Weather Roundup
Issued by NWS

Home | Current Version | Previous Version | Graphics & Text | Print | Product List | Glossary On
Versions: 1 2 3 4 5 6 7 8 9 10 11 12 13 14 15 16 17 18 19 20 21 22 23 24 25 26 27 28 29 30 31 32 33 34 35 36 37 38 39 40 41 42 43 44 45 46 47 48 49 50
000
ASUS45 KCYS 221410
RWRWY

WYOMING REGIONAL WEATHER ROUNDUP
NATIONAL WEATHER SERVICE CHEYENNE WY
800 AM MDT FRI AUG 22 2014

NOTE:  "FAIR" INDICATES FEW OR NO CLOUDS BELOW 12,000 FEET
WITH NO SIGNIFICANT WEATHER AND/OR OBSTRUCTIONS TO VISIBILITY.

WYZ001-221500-
YELLOWSTONE NATIONAL PARK

CITY           SKY/WX    TMP DP  RH WIND       PRES   REMARKS
LK YELLOWSTONE   N/A     44  43  96 CALM      30.22F
W YELLOWSTONE  NOT AVBL

$$
WYZ002>013-054>058-071-098>099-221500-
NORTHERN WYOMING

CITY           SKY/WX    TMP DP  RH WIND       PRES   REMARKS
JACKSON        SHOWER    48  46  93 S12       30.17F
CODY           CLOUDY    54  52  94 NE7       30.12F
GREYBULL       CLOUDY    57  54  89 W3        30.08F
WORLAND        PTSUNNY   56  51  84 CALM      30.09F
SHERIDAN       CLOUDY    59  54  83 CALM      30.10S
BUFFALO        CLOUDY    56  54  93 E5        30.13F
GILLETTE       PTSUNNY   61  55  81 VRB3      30.14R
HULETT         CLOUDY    61  57  88 MISG      30.13
NEWCASTLE      FAIR      59  52  77 SE6       30.12

$$
WYZ014>020-022>026-101>103-221500-
CENTRAL WYOMING

CITY           SKY/WX    TMP DP  RH WIND       PRES   REMARKS
BIG PINEY      LGT RAIN  49  46  90 N7        30.22R
PINEDALE       LGT RAIN  46  46 100 MISG      30.21S
DUBOIS         CLOUDY    46  43  87 CALM      30.18F
LANDER         PTSUNNY   55  48  77 S3        30.12F
RIVERTON       PTSUNNY   54  51  90 W9        30.13F
CASPER         PTSUNNY   55  51  86 E3        30.16R
DOUGLAS        PTSUNNY   59  52  77 N5        30.17F

$$
WYZ021-027>030-104>119-221500-
SOUTHERN WYOMING

CITY           SKY/WX    TMP DP  RH WIND       PRES   REMARKS
EVANSTON       CLOUDY    52  45  77 E9        30.18F
KEMMERER       LGT RAIN  50  45  81 E8        30.20F
FORT BRIDGER   CLOUDY    49  48  95 N3        30.22F
ROCK SPRINGS   MOSUNNY   51  42  71 SE3       30.19S
DIXON          FAIR      53  47  81 CALM      30.22S
RAWLINS        CLOUDY    50  46  86 CALM      30.21S
SARATOGA       FAIR      55  45  67 MISG      30.22F
LARAMIE        LGT RAIN  55  46  71 S9        30.26R
CHEYENNE       CLOUDY    60  50  69 SW6       30.23R
TORRINGTON     PTSUNNY   58  54  86 NW7       30.12S
PINE BLUFFS    FAIR      61  55  82 S5        30.17S

$$



USA.gov is the U.S. government's official web portal to all federal, state and local government web resources and services.